Time,TemperatureF,DewpointF,PressureIn,WindDirection,WindDirectionDegrees,WindSpeedMPH,WindSpeedGustMPH,Humidity,HourlyPrecipIn,Conditions,Clouds,dailyrainin,SoftwareType,DateUTC
2013-01-15 00:08:00,32.7,31.7,30.37,NW,319,3.0,6.0,96,0.00,,,0.19,Wunderground v.1.15,2013-01-15 05:08:00,
2013-01-15 00:18:00,32.5,31.5,30.37,NNW,340,2.0,2.0,96,0.00,,,0.19,Wunderground v.1.15,2013-01-15 05:18:00,
2013-01-15 00:33:00,32.5,31.5,30.37,NNW,340,1.0,1.0,96,0.00,,,0.19,Wunderground v.1.15,2013-01-15 05:33:00,
2013-01-15 00:43:00,32.5,31.5,30.37,NNW,340,0.0,6.0,96,0.00,,,0.19,Wunderground v.1.15,2013-01-15 05:43:00,
2013-01-15 00:53:00,32.5,31.5,30.36,NNW,340,0.0,7.0,96,0.00,,,0.19,Wunderground v.1.15,2013-01-15 05:53:00,
2013-01-15 01:18:00,32.7,31.7,30.37,NNW,340,1.0,1.0,96,0.00,,,0.19,Wunderground v.1.15,2013-01-15 06:18:00,
2013-01-15 01:28:00,32.5,31.7,30.37,NNW,340,1.0,7.0,97,0.00,,,0.19,Wunderground v.1.15,2013-01-15 06:28:00,
2013-01-15 01:38:00,32.5,31.7,30.37,NNW,340,0.0,7.0,97,0.00,,,0.19,Wunderground v.1.15,2013-01-15 06:38:00,
2013-01-15 01:43:00,32.7,31.9,30.37,NNW,340,0.0,7.0,97,0.00,,,0.19,Wunderground v.1.15,2013-01-15 06:43:00,
2013-01-15 01:53:00,32.7,31.9,30.37,NNW,340,1.0,1.0,97,0.00,,,0.19,Wunderground v.1.15,2013-01-15 06:53:00,
2013-01-15 02:13:00,32.7,31.9,30.37,NNW,340,0.0,7.0,97,0.00,,,0.19,Wunderground v.1.15,2013-01-15 07:13:00,
2013-01-15 02:23:00,32.5,31.7,30.37,NNW,340,5.0,5.0,97,0.00,,,0.19,Wunderground v.1.15,2013-01-15 07:23:00,
2013-01-15 02:33:00,32.5,31.7,30.38,NNW,340,3.0,3.0,97,0.00,,,0.19,Wunderground v.1.15,2013-01-15 07:33:00,
2013-01-15 02:38:00,32.5,31.7,30.38,NNW,340,3.0,7.0,97,0.00,,,0.19,Wunderground v.1.15,2013-01-15 07:38:00,
2013-01-15 02:48:00,32.4,31.6,30.37,NNW,340,1.0,1.0,97,0.00,,,0.19,Wunderground v.1.15,2013-01-15 07:48:00,
2013-01-15 02:58:00,32.4,31.6,30.37,NNW,340,1.0,6.0,97,0.00,,,0.19,Wunderground v.1.15,2013-01-15 07:58:00,
2013-01-15 03:23:00,32.4,31.6,30.37,NNW,340,0.0,6.0,97,0.00,,,0.19,Wunderground v.1.15,2013-01-15 08:23:00,
2013-01-15 03:33:00,32.5,31.7,30.38,NNW,340,0.0,6.0,97,0.00,,,0.19,Wunderground v.1.15,2013-01-15 08:33:00,
2013-01-15 03:48:00,32.5,31.7,30.38,NNW,340,0.0,6.0,97,0.00,,,0.19,Wunderground v.1.15,2013-01-15 08:48:00,
2013-01-15 03:58:00,32.7,31.9,30.38,NNW,340,0.0,4.0,97,0.00,,,0.19,Wunderground v.1.15,2013-01-15 08:58:00,
2013-01-15 04:18:00,32.7,31.9,30.37,NNW,340,0.0,4.0,97,0.00,,,0.20,Wunderground v.1.15,2013-01-15 09:18:00,
2013-01-15 04:33:00,32.7,31.9,30.36,NNW,340,1.0,1.0,97,0.00,,,0.20,Wunderground v.1.15,2013-01-15 09:33:00,
2013-01-15 04:43:00,32.8,32.0,30.36,NNW,340,0.0,4.0,97,0.00,,,0.20,Wunderground v.1.15,2013-01-15 09:43:00,
2013-01-15 04:53:00,32.9,32.1,30.36,NNW,340,0.0,3.0,97,0.00,,,0.20,Wunderground v.1.15,2013-01-15 09:53:00,
2013-01-15 05:13:00,32.9,32.1,30.37,NNW,340,1.0,3.0,97,0.00,,,0.20,Wunderground v.1.15,2013-01-15 10:13:00,
2013-01-15 05:23:00,33.1,32.3,30.37,NNW,340,0.0,3.0,97,0.00,,,0.20,Wunderground v.1.15,2013-01-15 10:23:00,
2013-01-15 05:33:00,33.1,32.3,30.37,NNW,340,0.0,3.0,97,0.00,,,0.20,Wunderground v.1.15,2013-01-15 10:33:00,
2013-01-15 05:48:00,33.1,32.3,30.37,NNW,340,2.0,2.0,97,0.00,,,0.20,Wunderground v.1.15,2013-01-15 10:48:00,
2013-01-15 05:58:00,32.9,32.1,30.37,NNW,340,1.0,1.0,97,0.00,,,0.20,Wunderground v.1.15,2013-01-15 10:58:00,
2013-01-15 06:08:00,32.8,32.0,30.38,NNW,340,0.0,5.0,97,0.00,,,0.20,Wunderground v.1.15,2013-01-15 11:08:00,
2013-01-15 06:18:00,32.8,32.0,30.38,NNW,340,0.0,5.0,97,0.00,,,0.20,Wunderground v.1.15,2013-01-15 11:18:00,
2013-01-15 06:33:00,32.9,32.1,30.39,NNW,340,0.0,5.0,97,0.00,,,0.20,Wunderground v.1.15,2013-01-15 11:33:00,
2013-01-15 06:43:00,32.9,32.1,30.39,NNW,340,1.0,1.0,97,0.00,,,0.20,Wunderground v.1.15,2013-01-15 11:43:00,
2013-01-15 06:53:00,33.1,32.3,30.39,NNW,340,0.0,5.0,97,0.00,,,0.20,Wunderground v.1.15,2013-01-15 11:53:00,
2013-01-15 07:13:00,33.2,32.4,30.41,NNW,340,0.0,5.0,97,0.00,,,0.20,Wunderground v.1.15,2013-01-15 12:13:00,
2013-01-15 07:28:00,33.1,32.3,30.41,NNW,340,0.0,5.0,97,0.00,,,0.20,Wunderground v.1.15,2013-01-15 12:28:00,
2013-01-15 07:43:00,33.2,32.7,30.42,NNW,340,0.0,5.0,98,0.00,,,0.20,Wunderground v.1.15,2013-01-15 12:43:00,
2013-01-15 07:53:00,33.2,32.7,30.43,NNW,340,0.0,4.0,98,0.00,,,0.20,Wunderground v.1.15,2013-01-15 12:53:00,
2013-01-15 08:13:00,33.1,32.6,30.43,NNW,340,3.0,4.0,98,0.00,,,0.20,Wunderground v.1.15,2013-01-15 13:13:00,
2013-01-15 08:23:00,32.9,32.4,30.44,NNW,340,3.0,5.0,98,0.00,,,0.20,Wunderground v.1.15,2013-01-15 13:23:00,
2013-01-15 08:29:00,32.8,32.3,30.44,NNW,340,3.0,5.0,98,0.00,,,0.20,Wunderground v.1.15,2013-01-15 13:29:00,
2013-01-15 08:49:00,32.7,32.2,30.47,NNW,340,1.0,1.0,98,0.00,,,0.20,Wunderground v.1.15,2013-01-15 13:49:00,
2013-01-15 08:58:00,32.7,32.2,30.47,NNW,340,2.0,11.0,98,0.00,,,0.20,Wunderground v.1.15,2013-01-15 13:58:00,
2013-01-15 09:08:00,32.7,32.2,30.47,NNW,340,1.0,1.0,98,0.00,,,0.20,Wunderground v.1.15,2013-01-15 14:08:00,
2013-01-15 09:18:00,32.7,32.2,30.48,NNW,340,1.0,1.0,98,0.00,,,0.20,Wunderground v.1.15,2013-01-15 14:18:00,
2013-01-15 09:24:00,32.5,32.0,30.48,NNW,340,1.0,11.0,98,0.00,,,0.20,Wunderground v.1.15,2013-01-15 14:24:00,
2013-01-15 09:33:00,32.5,32.0,30.48,NNW,340,1.0,1.0,98,0.00,,,0.20,Wunderground v.1.15,2013-01-15 14:33:00,
2013-01-15 09:43:00,32.7,32.2,30.48,NNW,340,1.0,11.0,98,0.00,,,0.20,Wunderground v.1.15,2013-01-15 14:43:00,
2013-01-15 09:49:00,32.7,32.2,30.47,NNW,340,2.0,11.0,98,0.00,,,0.20,Wunderground v.1.15,2013-01-15 14:49:00,
2013-01-15 09:58:00,32.8,32.3,30.47,NNW,340,3.0,5.0,98,0.00,,,0.20,Wunderground v.1.15,2013-01-15 14:58:00,
2013-01-15 10:09:00,32.8,32.3,30.48,NNW,340,2.0,5.0,98,0.00,,,0.20,Wunderground v.1.15,2013-01-15 15:09:00,
2013-01-15 10:19:00,32.8,32.3,30.48,NNW,340,3.0,5.0,98,0.00,,,0.20,Wunderground v.1.15,2013-01-15 15:19:00,
2013-01-15 10:29:00,32.7,31.9,30.48,NNW,340,2.0,5.0,97,0.00,,,0.20,Wunderground v.1.15,2013-01-15 15:29:00,
2013-01-15 10:44:00,32.8,32.0,30.48,NNW,340,1.0,5.0,97,0.00,,,0.20,Wunderground v.1.15,2013-01-15 15:44:00,
2013-01-15 10:54:00,32.9,32.1,30.48,NNW,340,3.0,9.0,97,0.00,,,0.20,Wunderground v.1.15,2013-01-15 15:54:00,
2013-01-15 11:09:00,32.7,31.9,30.47,NNW,340,1.0,9.0,97,0.00,,,0.20,Wunderground v.1.15,2013-01-15 16:09:00,
2013-01-15 11:24:00,32.5,31.7,30.46,NNE,24,5.0,9.0,97,0.00,,,0.20,Wunderground v.1.15,2013-01-15 16:24:00,
2013-01-15 11:34:00,32.4,31.6,30.46,NNE,24,4.0,9.0,97,0.00,,,0.20,Wunderground v.1.15,2013-01-15 16:34:00,
2013-01-15 11:44:00,32.4,31.6,30.46,NNE,24,3.0,3.0,97,0.00,,,0.20,Wunderground v.1.15,2013-01-15 16:44:00,
2013-01-15 12:14:00,32.9,31.9,30.44,NNE,24,4.0,7.0,96,0.00,,,0.21,Wunderground v.1.15,2013-01-15 17:14:00,
2013-01-15 12:24:00,33.7,32.7,30.42,NNE,24,4.0,7.0,96,0.00,,,0.21,Wunderground v.1.15,2013-01-15 17:24:00,
2013-01-15 12:39:00,34.3,33.3,30.42,NNE,33,5.0,5.0,96,0.00,,,0.21,Wunderground v.1.15,2013-01-15 17:39:00,
2013-01-15 12:54:00,34.0,32.7,30.40,NE,38,4.0,9.0,95,0.00,,,0.21,Wunderground v.1.15,2013-01-15 17:54:00,
2013-01-15 13:09:00,34.3,32.8,30.38,NE,39,3.0,9.0,94,0.00,,,0.21,Wunderground v.1.15,2013-01-15 18:09:00,
2013-01-15 13:14:00,34.3,32.5,30.38,NE,39,4.0,9.0,93,0.00,,,0.21,Wunderground v.1.15,2013-01-15 18:14:00,
2013-01-15 13:24:00,33.8,31.5,30.39,NE,39,3.0,3.0,91,0.00,,,0.21,Wunderground v.1.15,2013-01-15 18:24:00,
2013-01-15 13:34:00,34.9,32.5,30.37,NE,51,4.0,9.0,91,0.00,,,0.21,Wunderground v.1.15,2013-01-15 18:34:00,
2013-01-15 13:44:00,34.7,31.2,30.37,NE,51,3.0,9.0,87,0.00,,,0.21,Wunderground v.1.15,2013-01-15 18:44:00,
2013-01-15 13:54:00,35.0,31.5,30.37,NE,51,4.0,10.0,87,0.00,,,0.21,Wunderground v.1.15,2013-01-15 18:54:00,
2013-01-15 14:14:00,34.7,30.9,30.39,NE,51,3.0,3.0,86,0.00,,,0.21,Wunderground v.1.15,2013-01-15 19:14:00,
2013-01-15 14:19:00,34.7,30.9,30.36,NE,51,2.0,10.0,86,0.00,,,0.21,Wunderground v.1.15,2013-01-15 19:19:00,
2013-01-15 14:39:00,34.7,30.4,30.36,NE,51,2.0,10.0,84,0.00,,,0.22,Wunderground v.1.15,2013-01-15 19:39:00,
2013-01-15 14:49:00,34.6,30.0,30.37,NE,51,0.0,10.0,83,0.00,,,0.22,Wunderground v.1.15,2013-01-15 19:49:00,
2013-01-15 14:59:00,34.6,30.0,30.37,NE,51,0.0,8.0,83,0.00,,,0.22,Wunderground v.1.15,2013-01-15 19:59:00,
2013-01-15 15:09:00,34.6,30.3,30.37,NE,51,3.0,3.0,84,0.00,,,0.22,Wunderground v.1.15,2013-01-15 20:09:00,
2013-01-15 15:34:00,34.1,29.8,30.38,NE,51,1.0,1.0,84,0.00,,,0.22,Wunderground v.1.15,2013-01-15 20:34:00,
2013-01-15 15:44:00,33.8,30.1,30.38,NE,51,4.0,8.0,86,0.00,,,0.22,Wunderground v.1.15,2013-01-15 20:44:00,
2013-01-15 15:59:00,33.5,30.3,30.36,NE,51,3.0,7.0,88,0.00,,,0.00,Wunderground v.1.15,2013-01-15 20:59:00,
2013-01-15 16:09:00,33.2,29.8,30.36,NE,51,4.0,4.0,87,0.00,,,0.00,Wunderground v.1.15,2013-01-15 21:09:00,
2013-01-15 16:24:00,33.1,29.9,30.36,NE,51,4.0,4.0,88,0.00,,,0.00,Wunderground v.1.15,2013-01-15 21:24:00,
2013-01-15 16:34:00,33.1,30.2,30.36,NE,51,3.0,7.0,89,0.00,,,0.00,Wunderground v.1.15,2013-01-15 21:34:00,
2013-01-15 16:44:00,33.1,30.2,30.36,NE,51,1.0,7.0,89,0.00,,,0.00,Wunderground v.1.15,2013-01-15 21:44:00,
2013-01-15 16:49:00,33.1,29.9,30.37,NE,51,1.0,7.0,88,0.00,,,0.00,Wunderground v.1.15,2013-01-15 21:49:00,
2013-01-15 16:59:00,33.1,30.2,30.37,NE,51,2.0,9.0,89,0.00,,,0.00,Wunderground v.1.15,2013-01-15 21:59:00,
2013-01-15 17:09:00,33.1,30.5,30.36,NE,51,3.0,9.0,90,0.00,,,0.00,Wunderground v.1.15,2013-01-15 22:09:00,
2013-01-15 17:19:00,32.8,30.5,30.35,NE,51,2.0,9.0,91,0.00,,,0.00,Wunderground v.1.15,2013-01-15 22:19:00,
2013-01-15 17:29:00,32.5,30.4,30.35,NE,51,3.0,9.0,92,0.00,,,0.00,Wunderground v.1.15,2013-01-15 22:29:00,
2013-01-15 17:44:00,32.4,30.3,30.38,NE,51,2.0,2.0,92,0.00,,,0.00,Wunderground v.1.15,2013-01-15 22:44:00,
2013-01-15 17:54:00,32.2,30.1,30.36,NE,51,4.0,4.0,92,0.00,,,0.00,Wunderground v.1.15,2013-01-15 22:54:00,
2013-01-15 18:19:00,31.9,30.1,30.38,NE,51,2.0,12.0,93,0.00,,,0.00,Wunderground v.1.15,2013-01-15 23:19:00,
2013-01-15 18:29:00,31.9,29.8,30.38,NE,51,3.0,12.0,92,0.00,,,0.00,Wunderground v.1.15,2013-01-15 23:29:00,
2013-01-15 18:39:00,31.9,29.8,30.39,NE,51,4.0,4.0,92,0.00,,,0.00,Wunderground v.1.15,2013-01-15 23:39:00,
2013-01-15 18:54:00,31.8,29.5,30.38,NE,51,4.0,4.0,91,0.00,,,0.00,Wunderground v.1.15,2013-01-15 23:54:00,
2013-01-15 19:09:00,31.6,29.3,30.36,NE,51,3.0,3.0,91,0.00,,,0.00,Wunderground v.1.15,2013-01-16 00:09:00,
2013-01-15 19:14:00,31.6,29.3,30.36,NE,51,3.0,5.0,91,0.00,,,0.00,Wunderground v.1.15,2013-01-16 00:14:00,
2013-01-15 19:24:00,31.2,29.1,30.37,NE,51,4.0,4.0,92,0.00,,,0.00,Wunderground v.1.15,2013-01-16 00:24:00,
2013-01-15 19:34:00,31.0,28.9,30.37,NE,51,3.0,3.0,92,0.00,,,0.00,Wunderground v.1.15,2013-01-16 00:34:00,
2013-01-15 19:49:00,31.0,29.2,30.37,NE,51,3.0,3.0,93,0.00,,,0.00,Wunderground v.1.15,2013-01-16 00:49:00,
2013-01-15 19:59:00,31.0,29.5,30.37,NE,51,2.0,8.0,94,0.00,,,0.00,Wunderground v.1.15,2013-01-16 00:59:00,
2013-01-15 20:09:00,31.0,29.5,30.36,NE,51,2.0,8.0,94,0.00,,,0.00,Wunderground v.1.15,2013-01-16 01:09:00,
2013-01-15 20:24:00,30.9,29.6,30.36,NE,51,4.0,8.0,95,0.00,,,0.01,Wunderground v.1.15,2013-01-16 01:24:00,
2013-01-15 20:34:00,30.9,29.6,30.34,NE,51,5.0,8.0,95,0.00,,,0.01,Wunderground v.1.15,2013-01-16 01:34:00,
2013-01-15 20:44:00,30.9,29.6,30.34,NE,51,5.0,5.0,95,0.00,,,0.01,Wunderground v.1.15,2013-01-16 01:44:00,
2013-01-15 20:59:00,30.9,29.6,30.34,NE,51,4.0,4.0,95,0.00,,,0.02,Wunderground v.1.15,2013-01-16 01:59:00,
2013-01-15 21:09:00,31.0,30.0,30.34,NE,51,1.0,13.0,96,0.05,,,0.03,Wunderground v.1.15,2013-01-16 02:09:00,
2013-01-15 21:19:00,31.0,30.0,30.33,NE,51,3.0,13.0,96,0.06,,,0.04,Wunderground v.1.15,2013-01-16 02:19:00,
2013-01-15 21:34:00,30.7,29.7,30.33,NE,51,6.0,13.0,96,0.00,,,0.05,Wunderground v.1.15,2013-01-16 02:34:00,
2013-01-15 21:44:00,30.7,29.7,30.33,NE,51,4.0,4.0,96,0.00,,,0.05,Wunderground v.1.15,2013-01-16 02:44:00,
2013-01-15 21:54:00,30.6,29.6,30.32,NE,51,5.0,13.0,96,0.00,,,0.05,Wunderground v.1.15,2013-01-16 02:54:00,
2013-01-15 22:19:00,30.4,29.4,30.31,NE,51,5.0,13.0,96,0.00,,,0.06,Wunderground v.1.15,2013-01-16 03:19:00,
2013-01-15 22:29:00,30.6,29.6,30.31,NE,51,4.0,4.0,96,0.00,,,0.06,Wunderground v.1.15,2013-01-16 03:29:00,
2013-01-15 22:44:00,30.4,29.4,30.30,NE,51,4.0,13.0,96,0.00,,,0.06,Wunderground v.1.15,2013-01-16 03:44:00,
2013-01-15 22:54:00,30.4,29.4,30.29,NE,51,3.0,12.0,96,0.00,,,0.06,Wunderground v.1.15,2013-01-16 03:54:00,
2013-01-15 23:19:00,30.4,29.4,30.28,NE,51,5.0,5.0,96,0.00,,,0.08,Wunderground v.1.15,2013-01-16 04:19:00,
2013-01-15 23:29:00,30.6,29.6,30.28,NE,51,5.0,5.0,96,0.00,,,0.08,Wunderground v.1.15,2013-01-16 04:29:00,
2013-01-15 23:44:00,30.7,30.0,30.28,NE,51,3.0,3.0,97,0.00,,,0.08,Wunderground v.1.15,2013-01-16 04:44:00,
2013-01-15 23:54:00,30.7,30.0,30.26,NE,51,1.0,11.0,97,0.00,,,0.08,Wunderground v.1.15,2013-01-16 04:54:00,